Miscellaneous Local Product
Issued by NWS North Platte, NE

Home | Current Version | Previous Version | Text Only | Print | Product List | Glossary On
Versions: 1 2 3 4 5 6 7 8 9 10 11 12 13 14 15 16 17 18 19 20 21 22 23 24 25 26 27 28 29 30 31 32 33 34 35 36 37 38 39 40 41 42 43 44 45 46 47 48 49 50
205
AXUS43 KLBF 010410
MISLBF


WESTERN AND NORTH CENTRAL NEBRASKA HOURLY WEATHER ROUNDUP
NATIONAL WEATHER SERVICE NORTH PLATTE NE
1100 PM CDT TUE MAY 31 2016

NOTE: "FAIR" INDICATES FEW OR NO CLOUDS BELOW 12,000 FEET WITH NO
SIGNIFICANT WEATHER AND/OR OBSTRUCTIONS TO VISIBILITY.

NOTE: STATIONS NOT REPORTING VARIABLES SUCH AS SKY/WEATHER OR
PRESSURE ARE PROVIDED BY RAWS AND APRS NETWORKS AND ARE NOT UNDER
NATIONAL WEATHER SERVICE QUALITY CONTROL.

...OBSERVATIONS IN AND NEAR THE EASTERN PANHANDLE OF NEBRASKA...

CITY           SKY/WX    TMP DP  RH WIND       PRES   REMARKS
PINE RIDGE     CLEAR     48  39  71 S5        30.10R
CHADRON        CLEAR     49  40  71 CALM      30.12R
ALLIANCE       CLEAR     52  40  63 N7        30.12R
SIDNEY         CLOUDY    51  41  68 N7        30.16R
BIG SPRINGS      N/A     60  51  72 NW3         N/A
$$

...OBSERVATIONS IN NORTHERN NEBRASKA AND FAR SOUTHERN SOUTH DAKOTA...

CITY           SKY/WX    TMP DP  RH WIND       PRES   REMARKS
WINNER         FAIR      56  47  71 W10       30.00R
VALENTINE      CLEAR     54  43  66 NW6       30.06R
THEDFORD       CLEAR     56  46  68 N6        30.09R
AINSWORTH      CLEAR     54  46  72 W5        30.07R
O`NEILL        CLEAR     58  47  66 NW10      30.04R
BROKEN BOW     PTCLDY    60  49  66 N9        30.05R
BUTTE            N/A     55  47  74 W7          N/A
CHAMBERS         N/A     58  44  60 N3          N/A
EWING            N/A     61  46  58 NW9         N/A
$$

...OBSERVATIONS IN SOUTHWEST NEBRASKA AND FAR NORTHEAST COLORADO...

CITY           SKY/WX    TMP DP  RH WIND       PRES   REMARKS
WRAY           CLOUDY    61  50  67 CALM      30.10R
IMPERIAL       PTCLDY    59  52  77 CALM      30.08R
OGALLALA       CLEAR     56  41  58 N9        30.11R
NORTH PLATTE   CLEAR     55  49  80 NW6       30.07R
MCCOOK         CLEAR     58  49  72 CALM      30.07R
LEXINGTON      CLEAR     59  53  80 S5        30.05R
PAXTON           N/A     61  50  67 CALM        N/A
STAPLETON        N/A     57  43  60 CALM        N/A
GOTHENBURG       N/A     64  47  54 CALM        N/A
CALLAWAY         N/A     60  49  67 W7          N/A
$$

...OBSERVATIONS IN CENTRAL LINCOLN COUNTY AREA...

CITY           SKY/WX    TMP DP  RH WIND       PRES   REMARKS
N.P. AIRPORT   CLEAR     55  49  80 NW6       30.07R
N.P. DOWNTOWN    N/A     61  49  65 CALM        N/A
N.P. SOUTHEAST   N/A     62  49  62 CALM        N/A
N.P. HILLCREST   N/A     61  43  51 NW12        N/A
$$

...SOME OBSERVATIONS FROM AROUND THE REGION...

CITY           SKY/WX    TMP DP  RH WIND       PRES   REMARKS
DENVER         CLOUDY    54  50  86 E3        30.15R
LARAMIE        CLEAR     43  29  57 SE8       30.22R
CHEYENNE       CLEAR     49  33  54 NE7       30.20R
SCOTTSBLUFF    CLEAR     51  38  60 N7        30.14R
RAPID CITY     CLEAR     47  39  74 NW9       30.07R
BISMARCK       CLOUDY    52  49  89 NW18G29   29.81R
PIERRE         CLOUDY    54  47  77 W12       29.93R
SIOUX FALLS    CLEAR     62  49  62 W14G22    29.92R
OMAHA          CLOUDY    66  57  72 SE6       29.97R
GRAND ISLAND   CLEAR     61  53  75 S9        30.03R
KANSAS CITY    MOCLDY    68  64  87 SW5       29.96R
WICHITA        PTCLDY    71  62  73 N7        29.98R
OKLAHOMA CITY  CLOUDY    69  67  93 S6        29.98R
DALLAS         MOCLDY    70  65  84 E9        29.88F
AMARILLO       CLOUDY    63  56  78 E12       30.03R
DODGE CITY     CLEAR     60  58  92 N7        30.04R
HAYS           CLEAR     63  52  67 NE7       30.05R
GOODLAND       CLOUDY    56  49  77 SE6       30.10R
$$




USA.gov is the U.S. government's official web portal to all federal, state and local government web resources and services.